Location: Brantley
(31.5822°N, 86.2569°W)
Time: 06:49:18
(UTC+00:00)

Transit 2A Rocket - Pass Details

Date: 18 February 2026
Orbit: 583 x 900 km, 66.7° (Epoch: 11 March)

Event Time Altitude Azimuth Distance (km) Brightness Sun altitude
Rises 05:47:51 0° 352° (N) 3,323 - -69.9°
Reaches altitude 10° 05:51:18 10° 12° (NNE) 2,321 - -70.0°
Maximum altitude 05:54:35 16° 51° (NE) 1,850 - -70.0°
Drops below altitude 10° 05:57:41 10° 90° (E) 2,181 - -70.0°
Sets 06:00:46 0° 111° (ESE) 3,028 - -70.0°
